#timestamp,LO_Frequency,Hit,StdDev 
1652515215.6,286047002.3,N
1652515235.4,286047000.3,N
1652515255.2,286047001.6,N
1652515275.1,286047003.3,N
1652515276.0,286047003.3,N
1652515295.8,286047003.3,N
1652515315.6,286047003.2,N
1652515335.5,286047005.9,N
1652515355.3,286047005.4,N
1652515375.1,286047007.3,N
1652515395.9,286047004.6,N
1652515415.7,286047007.6,N
1652515435.5,286047005.5,N
1652515455.4,286047007.1,N
1652515475.2,286047007.4,N
1652515495.0,286047005.4,N
1652515495.9,286047005.4,N
1652515515.8,286047007.6,N
1652515535.6,286047002.9,N
1652515555.4,286047005.8,N
1652515575.3,286047004.9,N
1652515595.1,286047005.5,N
1652515596.0,286047005.5,N
1652515615.8,286047007.4,N
1652515635.7,286047007.2,N
1652515655.5,286047004.0,N
1652515675.3,286047005.9,N
1652515695.2,286047005.5,N
1652515715.9,286047005.7,N
1652515735.7,286047003.8,N
1652515755.6,286047001.5,N
1652515775.4,286047000.3,N
1652515795.2,286047000.9,N
1652515815.1,286047002.3,N
1652515816.0,286047002.3,N
1652515835.8,286047002.2,N
1652515855.6,286047001.4,N
1652515875.5,286047001.5,N
1652515895.3,286047001.4,N
1652515915.1,286047002.9,N
1652515935.9,286047003.8,N
1652515955.7,286047004.4,N
1652515975.5,286047001.8,N
1652515995.4,286047002.1,N
1652516015.2,286047002.5,N
1652516035.0,286047002.4,N
1652516035.9,286047002.4,N
1652516055.8,286047001.2,N
1652516075.6,286047000.5,N
1652516095.4,286047000.7,N
1652516115.3,286047002.6,N
1652516135.1,286047002.6,N
1652516155.8,286047001.7,N
1652516175.7,286047002.0,N
1652516195.5,286047000.1,N
1652516215.3,286046999.8,N
1652516235.2,286046999.7,N
1652516255.0,286047002.0,N
1652516255.9,286047002.0,N
1652516275.7,286047001.9,N
1652516295.6,286047003.8,Y
1652516315.4,286046998.3,P
1652516335.2,286046997.1,N
1652516355.1,286047000.0,N
1652516356.0,286047000.0,N
1652516375.8,286047002.0,N
1652516395.6,286047002.1,N
1652516415.5,286047002.6,N
1652516435.3,286046999.8,N
1652516455.1,286046999.9,N
1652516475.9,286046999.9,N
1652516495.7,286047002.0,N
1652516515.6,286046998.1,N
1652516535.4,286047002.8,N
1652516555.2,286047004.1,N
1652516575.1,286046998.6,N
1652516576.0,286046998.6,N
1652516595.8,286046999.3,N
1652516615.6,286046996.9,N
1652516635.5,286046998.8,N
1652516655.3,286046999.3,N
1652516675.1,286046998.5,N
1652516695.9,286047002.4,N
1652516715.7,286047004.1,N
1652516735.5,286047003.3,N
1652516755.4,286047003.8,N
1652516775.2,286047002.8,N
1652516795.0,286047002.7,N
1652516795.9,286047002.7,N
1652516815.8,286047001.5,N
1652516835.6,286047000.9,N
1652516855.4,286047000.0,N
1652516875.3,286046999.2,N
1652516895.1,286046998.5,N
1652516896.0,286046998.5,N
1652516915.8,286047002.3,N
1652516935.7,286047003.6,N
1652516955.5,286047005.9,N
1652516975.3,286047003.4,N
1652516995.2,286047003.0,N
1652517015.9,286047004.5,N
1652517035.7,286047007.6,Y
1652517055.6,286047005.6,P
1652517075.4,286047005.1,N
1652517095.2,286047004.8,N
1652517115.1,286047002.9,N
1652517116.0,286047002.9,N
1652517135.8,286047003.2,N
1652517155.6,286047003.9,N
1652517175.5,286047003.0,N
1652517195.3,286047004.3,Y
1652517215.1,286047002.8,P
1652517235.9,286047002.4,P
1652517255.7,286047001.0,N
1652517275.5,286046997.7,N
1652517295.4,286046997.2,N
1652517315.2,286046997.4,N
1652517335.0,286046997.6,N
1652517335.9,286046997.6,N
1652517355.8,286046997.8,N
1652517375.6,286046998.0,N
1652517395.4,286046995.4,N
1652517415.3,286046995.9,N
1652517435.1,286046995.7,N
1652517455.8,286046995.4,N
1652517475.7,286046996.2,N
1652517495.5,286046996.1,N
1652517515.3,286046994.0,N
1652517535.2,286046994.0,N
1652517555.0,286046992.1,N
1652517555.9,286046992.1,N
1652517575.7,286046992.7,N
1652517595.6,286046991.9,N
1652517615.4,286046995.4,N
1652517635.3,286046995.3,N
1652517655.1,286046993.7,N
1652517656.0,286046993.7,N
1652517675.8,286046997.9,N
1652517695.7,286046998.7,N
1652517715.5,286047000.4,N
1652517735.3,286047000.7,N
1652517755.2,286046997.1,N
1652517775.9,286046999.0,N
1652517795.7,286046999.4,N
1652517815.6,286046997.0,N
1652517835.4,286046998.8,N
1652517855.2,286047001.1,N
1652517875.1,286046997.0,N
1652517876.0,286046997.0,N
1652517895.8,286046996.9,N
1652517915.6,286046997.9,N
1652517935.5,286046995.5,N
1652517955.3,286046995.2,N
1652517975.1,286046995.4,N
1652517995.9,286046993.5,N
1652518015.7,286046992.1,Y
1652518035.5,286046997.9,P
1652518055.4,286046997.8,N
1652518075.2,286046997.7,N
1652518095.0,286047000.4,N
1652518095.9,286047000.4,N
1652518115.8,286046996.7,N
1652518135.6,286046997.3,N
1652518155.4,286046997.3,N
1652518175.3,286047001.1,N
1652518195.1,286046996.5,N
1652518215.8,286046998.9,N
1652518235.7,286046998.5,N
1652518255.5,286046998.9,N
1652518275.3,286047000.8,N
1652518295.2,286047000.9,N
1652518315.0,286047000.8,N
1652518315.9,286047000.8,N
1652518335.7,286047000.9,N
1652518355.6,286047000.9,N
1652518375.4,286046996.5,N
1652518395.2,286046999.9,N
1652518415.1,286047000.6,N
1652518416.0,286047000.6,N
1652518435.8,286047004.4,N
1652518455.6,286047000.2,N
1652518475.5,286047000.9,N
1652518495.3,286046997.2,N
1652518515.1,286046996.5,N
1652518535.9,286046998.3,N
1652518555.7,286046998.4,N
1652518575.5,286046999.5,N
1652518595.4,286046996.3,N
1652518615.2,286046995.4,N
1652518635.0,286046997.7,N
1652518635.9,286046997.7,N
1652518655.8,286046999.6,N
1652518675.6,286046997.1,N
1652518695.4,286046997.0,N
1652518715.3,286046993.4,Y
1652518735.1,286046997.2,P
1652518755.9,286046997.2,N
1652518775.7,286046999.0,N
1652518795.5,286047000.7,N
